Location: Carrizalito
(10.3833°N, 67.0217°W)
Time: 08:11:44
(UTC+00:00)

Cosmos 1553 Rocket - Visible Passes

Search period start: 26 June 2022 00:00
Search period end: 06 July 2022 00:00
Orbit: 942 x 1007 km, 82.9° (Epoch: 25 June)

Date Brightness Start Highest point End Pass type
(mag) Time Alt. Az. Time Alt. Az. Time Alt. Az.
26 Jun 3.9 00:32:11 29° S 00:35:34 72° E 00:41:51 10° N visible
26 Jun 5.7 23:13:52 10° ESE 23:15:48 11° E 23:17:46 10° ENE visible
27 Jun 4.6 00:55:34 15° SSW 01:00:38 54° W 01:06:48 10° N visible
27 Jun 4.9 23:35:38 10° SE 23:40:45 27° E 23:45:54 10° NE visible
28 Jun 5.9 01:20:49 10° SW 01:25:48 25° W 01:30:52 10° NNW visible
28 Jun 4.0 23:59:37 10° S 00:05:44 58° E 00:11:56 10° NNE visible
29 Jun 6.8 01:49:42 10° W 01:51:03 11° W 01:52:24 10° WNW visible
30 Jun 4.3 00:24:35 10° SSW 00:30:48 68° W 00:37:06 10° N visible
01 Jul 5.6 00:50:29 10° SW 00:55:56 31° W 01:01:28 10° NNW visible
01 Jul 4.3 23:29:57 10° SSE 23:35:55 46° E 23:41:57 10° NNE visible
02 Jul 6.7 01:18:00 10° WSW 01:21:09 14° W 01:24:21 10° NW visible
02 Jul 4.1 23:54:40 10° S 00:00:57 83° W 00:07:20 10° N visible
04 Jul 5.4 00:20:17 10° SSW 00:26:05 39° W 00:31:57 10° NNW visible
05 Jul 6.5 00:47:08 10° SW 00:51:16 18° W 00:55:27 10° NW visible
05 Jul 4.0 23:24:50 10° S 23:31:08 80° E 23:37:31 10° N visible
